Domov               UVHVVR             MKGP            O straneh              
ZDRAVSTVENO VARSTVO RASTLIN
  MREŽA AGROMET. POSTAJ
 ► PROGNOSTIČNA OBVESTILA
AGROMETEOROLOŠKI PODATKI -
ARSO
OBVLADOVANJE TVEGANJ ZARADI
NEUGODNIH VREMENSKIH RAZMER
  ► NARAVNE NESREČE
  ► SUŠA/MOČA
  ► NAMAKANJE
  ► ŽLED (gozdarstvo)
KARTOGRAFSKI PRIKAZI
SPLETNE POVEZAVE
PROJEKTI IN PUBLIKACIJE

AGROMETEOROLOŠKA MREŽA: VREMENSKE POSTAJE IN FENOLOŠKA OPAZOVANJA

Pregled podatkov za lokacijo Parižlje, meteorološka postaja 24303

Pregled senzorjev na lokaciji

ID Ime Zadnja
vrednost
Datum
zadnje
spremembe
Tip
senzorja
1493 Temperatura 2 m ( °C) 8,08 °C 17.10.2017 07:30 Generic -40 - +60 °C
1494 Relativna vlaga 2 m (% RH) 92,04 % RH 17.10.2017 07:29 Generic 0 - 100 %
1495 Omočenost lista (U) 10 U 17.10.2017 07:29 A730WET
1496 Padavine 0.2 mm (mm) 0 mm 17.10.2017 07:30
2139 Sončno sevanje (W/m2) 1,71 W/m2 17.10.2017 07:30 MS-020VM 1400 W/m²

Pregled podatkov zadnjih 24 ur

Zap.
št.
Datum in čas Parižlje
Omočenost
lista
Padavine
0.2
mm
Relativna
vlaga
2
m
Sončno
sevanje
Temperatura
2
m
0 17.10.2017 06:30 10 0 92,04 1,71 8,08
1 17.10.2017 06:00 10 0 92,43 0 7,99
2 17.10.2017 05:30 10 0 90,74 0 8,69
3 17.10.2017 05:00 10 0 89,57 0 9,23
4 17.10.2017 04:30 10 0 90,72 0 8,86
5 17.10.2017 04:00 10 0 90,65 0 9,08
6 17.10.2017 03:30 10 0 90,77 0 9,3
7 17.10.2017 03:00 10 0 91,55 0 9,47
8 17.10.2017 02:30 10 0 90,28 0 9,43
9 17.10.2017 02:00 10 0 90,7 0 9,67
10 17.10.2017 01:30 10 0 91,6 0 9,57
11 17.10.2017 01:00 10 0 91,79 0 9,57
12 17.10.2017 00:30 10 0 91,18 0 9,72
13 17.10.2017 00:00 10 0 93,5 0 9,99
14 16.10.2017 23:30 10 0 92,21 0 10,48
15 16.10.2017 23:00 10 0 91,75 0 10,79
16 16.10.2017 22:30 10 0 91,62 0 10,92
17 16.10.2017 22:00 10 0 91,65 0 11,21
18 16.10.2017 21:30 10 0 91,43 0 11,62
19 16.10.2017 21:00 10 0 90,26 0 12,11
20 16.10.2017 20:30 10 0 90,23 0 12,63
21 16.10.2017 20:00 9 0 87,74 0 13,31
22 16.10.2017 19:30 8 0 88,89 0 12,84
23 16.10.2017 19:00 4 0 89,23 0 13,46
24 16.10.2017 18:30 1 0 85,49 0 14,24
25 16.10.2017 18:00 0 0 83,35 0 15,73
26 16.10.2017 17:30 0 0 76,75 17,56
27 16.10.2017 17:00 0 0 71,09 14,36 19,98
28 16.10.2017 16:30 0 0 52,45 46,15 23,39
29 16.10.2017 16:00 0 0 43,64 83,42 24,15
30 16.10.2017 15:30 0 0 45,03 116,24 24,37
31 16.10.2017 15:00 0 0 44,18 148,38 24,42
32 16.10.2017 14:30 0 0 43,57 180,51 24,22
33 16.10.2017 14:00 0 0 40,37 207,18 24,4
34 16.10.2017 13:30 0 0 41,66 229,06 24,15
35 16.10.2017 13:00 0 0 40,98 244,1 23,57
36 16.10.2017 12:30 0 0 44,15 254,36 23,25
37 16.10.2017 12:00 0 0 45,79 259,15 22,49
38 16.10.2017 11:30 0 0 48,89 260,17 21,88
39 16.10.2017 11:00 0 0 49,55 252,99 20,93
40 16.10.2017 10:30 0 0 53,04 236,58 18,9
41 16.10.2017 10:00 0 0 63,35 216,41 16,85
42 16.10.2017 09:30 10 0 68,25 191,45 15,14
43 16.10.2017 09:00 10 0 76,65 158,97 13,28
44 16.10.2017 08:30 10 0 83,08 124,1 11,4
45 16.10.2017 08:00 10 0 88,57 26,32 9,99
© 2011 Ministrstvo za kmetijstvo, gozdarstvo in prehrano. Vse pravice pridržane.